ROMMA est une association bénévole à but non lucratif. Votre soutien est indispensable : ADHERER à ROMMA ou FAIRE un DON

Trept - (38, Isère)

Plateau de Crémieu (265 m)   Longitude: 5° 19' 27" E   Latitude: 45° 41' 15"N Station partenaire n°94
 

Détail journalier du     <<     >>

Température Precipitation Humidité Pression Vent Dir Rafale Dir. rafale
Heure (°C) (mm) (%) (hPa) (km/h) (km/h)
01:00 13.106910132NNE10ONO
02:00 11.907510132NNO6NE
03:00 11.607710121NNE5NE
04:00 10.808110122OSO6SO
05:00 11.508010112NE6NNE
06:00 11.608210112NNE5NE
07:00 11.6082101203NE
08:00 10.4086101205NO
09:00 11.008710131NO5O
10:00 13.408210142OSO6OSO
11:00 16.206410142SSE8NO
12:00 17.406010142O6O
13:00 19.205310143O10SSE
14:00 19.904910143SO6ESE
15:00 20.505210144ONO15O
16:00 20.405110145ONO18O
17:00 20.505210144NE15NNE
18:00 20.105210153NO15NNE
19:00 19.405310153NE15NO
20:00 18.605910152N11ONO
21:00 17.906210162NNO13NO
22:00 17.506310173NNE11N
23:00 17.306410172N10NNE
minuit 16.2068101703N

Graphique du 10-09-2019

 

Serveur OMMA